F1ZVN-13 Weather Reports


time (UTC)temp
F
wind
direction
speed
knots
gust
knots
rain 1hr
in
rain 24hr
in
rain mn
in
humidity
%
barometer
mb
20260507150748 44 180 0.0 0.0 0.00 0.00 0.00 74 1003.4
20260507150547 43 180 0.0 0.0 0.00 0.00 0.00 73 1003.4
20260507150346 43 180 0.0 0.0 0.00 0.00 0.00 73 1003.4
20260507150143 43 180 0.0 0.0 0.00 0.00 0.00 73 1003.4
20260507145947 43 180 0.0 0.0 0.00 0.00 0.00 75 1003.4
20260507145739 43 180 0.0 0.0 0.00 0.00 0.00 75 1003.4
20260507145540 43 180 0.0 0.0 0.00 0.00 0.00 75 1003.3
20260507145142 43 180 0.0 0.0 0.00 0.00 0.00 75 1003.3
20260507144946 43 180 0.0 0.0 0.00 0.00 0.00 75 1003.3
20260507144738 43 180 0.0 0.0 0.00 0.00 0.00 74 1003.4
20260507144545 43 180 0.0 0.0 0.00 0.00 0.00 73 1003.4
20260507143932 43 180 0.0 0.0 0.00 0.00 0.00 72 1003.6
20260507143729 43 180 0.0 0.0 0.00 0.00 0.00 74 1003.4
20260507143327 44 180 0.0 0.0 0.00 0.00 0.00 69 1003.4
20260507143127 44 180 0.0 0.0 0.00 0.00 0.00 69 1003.4
20260507142924 44 180 0.0 0.0 0.00 0.00 0.00 69 1003.6
20260507142723 45 180 0.0 0.0 0.00 0.00 0.00 67 1003.6
20260507142522 45 180 0.0 0.0 0.00 0.00 0.00 68 1003.6
20260507142124 44 180 0.0 0.0 0.00 0.00 0.00 69 1003.4
20260507141716 43 180 0.0 0.0 0.00 0.00 0.00 65 1003.6
20260507141314 42 180 0.0 0.0 0.00 0.00 0.00 64 1003.7
20260507140912 42 180 0.0 0.0 0.00 0.00 0.00 61 1003.6
20260507140312 42 180 0.0 0.0 0.00 0.00 0.00 62 1003.7
20260507135706 43 180 0.0 0.0 0.00 0.00 0.00 56 1003.7
20260507135504 43 180 0.0 0.0 0.00 0.00 0.00 56 1003.7
20260507135120 45 180 0.0 0.0 0.00 0.00 0.00 60 1003.7
20260507134858 45 180 0.0 0.0 0.00 0.00 0.00 61 1003.7
20260507134456 45 180 0.0 0.0 0.00 0.00 0.00 61 1003.8
20260507134256 44 180 0.0 0.0 0.00 0.00 0.00 63 1003.8
20260507133651 43 180 0.0 0.0 0.00 0.00 0.00 64 1003.8
20260507133452 42 180 0.0 0.0 0.00 0.00 0.00 64 1004.0
20260507133248 42 180 0.0 0.0 0.00 0.00 0.00 64 1004.0
20260507133049 42 180 0.0 0.0 0.00 0.00 0.00 60 1004.0
20260507132854 42 180 0.0 0.0 0.00 0.00 0.00 64 1004.0
20260507132646 42 180 0.0 0.0 0.00 0.00 0.00 63 1004.0
20260507132244 42 180 0.0 0.0 0.00 0.00 0.00 65 1003.8
20260507132042 42 180 0.0 0.0 0.00 0.00 0.00 65 1004.0
20260507131851 42 180 0.0 0.0 0.00 0.00 0.00 63 1004.0
20260507131639 42 180 0.0 0.0 0.00 0.00 0.00 64 1004.0
20260507131244 41 180 0.0 0.0 0.00 0.00 0.00 65 1004.0
20260507130834 41 180 0.0 0.0 0.00 0.00 0.00 62 1004.0
20260507130436 41 180 0.0 0.0 0.00 0.00 0.00 63 1004.1
20260507130028 41 180 0.0 0.0 0.00 0.00 0.00 65 1004.1
20260507125426 41 180 0.0 0.0 0.00 0.00 0.00 64 1004.0
20260507125024 41 180 0.0 0.0 0.00 0.00 0.00 65 1004.0
20260507124823 41 180 0.0 0.0 0.00 0.00 0.00 64 1004.0
20260507124621 41 180 0.0 0.0 0.00 0.00 0.00 67 1004.0
20260507124420 41 180 0.0 0.0 0.00 0.00 0.00 67 1004.0
20260507124357 41 180 0.0 0.0 0.00 0.00 0.00 65 1004.0
20260507124219 41 180 0.0 0.0 0.00 0.00 0.00 65 1004.0
20260507123816 41 180 0.0 0.0 0.00 0.00 0.00 66 1004.0
20260507123614 41 180 0.0 0.0 0.00 0.00 0.00 66 1004.0
20260507123413 41 180 0.0 0.0 0.00 0.00 0.00 66 1004.0
20260507123212 41 180 0.0 0.0 0.00 0.00 0.00 67 1004.0
20260507123013 41 180 0.0 0.0 0.00 0.00 0.00 68 1004.0
20260507122809 41 180 0.0 0.0 0.00 0.00 0.00 69 1004.1
20260507122611 41 180 0.0 0.0 0.00 0.00 0.00 68 1004.1
20260507122209 41 180 0.0 0.0 0.00 0.00 0.00 72 1004.0
20260507121838 41 180 0.0 0.0 0.00 0.00 0.00 72 1004.0
20260507121806 41 180 0.0 0.0 0.00 0.00 0.00 72 1004.0
20260507121603 41 180 0.0 0.0 0.00 0.00 0.00 71 1004.0
20260507121406 41 180 0.0 0.0 0.00 0.00 0.00 71 1004.0
20260507121205 41 180 0.0 0.0 0.00 0.00 0.00 71 1004.1
20260507120958 41 180 0.0 0.0 0.00 0.00 0.00 71 1004.0
20260507120757 41 180 0.0 0.0 0.00 0.00 0.00 69 1004.0
20260507120658 41 180 0.0 0.0 0.00 0.00 0.00 72 1004.0
20260507120559 41 180 0.0 0.0 0.00 0.00 0.00 72 1004.0
20260507120354 41 180 0.0 0.0 0.00 0.00 0.00 72 1004.1
20260507120232 41 180 0.0 0.0 0.00 0.00 0.00 72 1004.0
20260507120153 41 180 0.0 0.0 0.00 0.00 0.00 72 1004.0
20260507115950 41 180 0.0 0.0 0.00 0.00 0.00 72 1004.1
20260507115756 41 180 0.0 0.0 0.00 0.00 0.00 71 1004.1
20260507115354 41 180 0.0 0.0 0.00 0.00 0.00 72 1004.1
20260507115155 41 180 0.0 0.0 0.00 0.00 0.00 72 1004.1
20260507114947 41 180 0.0 0.0 0.00 0.00 0.00 73 1004.1
20260507114746 41 180 0.0 0.0 0.00 0.00 0.00 72 1004.2
20260507114558 41 180 0.0 0.0 0.00 0.00 0.00 73 1004.1
20260507114142 41 180 0.0 0.0 0.00 0.00 0.00 72 1004.2
20260507113940 41 180 0.0 0.0 0.00 0.00 0.00 72 1004.2
20260507113738 41 180 0.0 0.0 0.00 0.00 0.00 72 1004.2
20260507113335 40 180 0.0 0.0 0.00 0.00 0.00 72 1004.2
20260507113143 40 180 0.0 0.0 0.00 0.00 0.00 73 1004.2
20260507112953 40 180 0.0 0.0 0.00 0.00 0.00 72 1004.2
20260507112731 41 180 0.0 0.0 0.00 0.00 0.00 74 1004.3
20260507112530 40 180 0.0 0.0 0.00 0.00 0.00 72 1004.2
20260507112329 41 180 0.0 0.0 0.00 0.00 0.00 76 1004.2
20260507112136 41 180 0.0 0.0 0.00 0.00 0.00 74 1004.2
20260507111927 41 180 0.0 0.0 0.00 0.00 0.00 75 1004.2
20260507111729 40 180 0.0 0.0 0.00 0.00 0.00 75 1004.2
20260507111528 41 180 0.0 0.0 0.00 0.00 0.00 75 1004.2
20260507111323 40 180 0.0 0.0 0.00 0.00 0.00 73 1004.2
20260507110921 41 180 0.0 0.0 0.00 0.00 0.00 77 1004.3
20260507110753 41 180 0.0 0.0 0.00 0.00 0.00 77 1004.3
20260507110719 41 180 0.0 0.0 0.00 0.00 0.00 77 1004.3
20260507110518 42 180 0.0 0.0 0.00 0.00 0.00 76 1004.3
20260507110316 42 180 0.0 0.0 0.00 0.00 0.00 80 1004.3
20260507105714 41 180 0.0 0.0 0.00 0.00 0.00 81 1004.3
20260507105513 41 180 0.0 0.0 0.00 0.00 0.00 82 1004.3
20260507105310 40 180 0.0 0.0 0.00 0.00 0.00 79 1004.3
20260507105119 40 180 0.0 0.0 0.00 0.00 0.00 80 1004.3
20260507104906 40 180 0.0 0.0 0.00 0.00 0.00 80 1004.3
20260507104707 40 180 0.0 0.0 0.00 0.00 0.00 79 1004.3
20260507104506 40 180 0.0 0.0 0.00 0.00 0.00 78 1004.2
20260507104304 39 180 0.0 0.0 0.00 0.00 0.00 77 1004.3
20260507103903 39 180 0.0 0.0 0.00 0.00 0.00 77 1004.2
20260507103738 40 180 0.0 0.0 0.00 0.00 0.00 76 1004.2
20260507103702 40 180 0.0 0.0 0.00 0.00 0.00 76 1004.2
20260507103258 40 180 0.0 0.0 0.00 0.00 0.00 76 1004.2
20260507103055 40 180 0.0 0.0 0.00 0.00 0.00 75 1004.2
20260507102908 40 180 0.0 0.0 0.00 0.00 0.00 74 1004.2
20260507102653 40 180 0.0 0.0 0.00 0.00 0.00 74 1004.2
20260507102453 40 180 0.0 0.0 0.00 0.00 0.00 73 1004.2
20260507101849 40 180 0.0 0.0 0.00 0.00 0.00 72 1004.2
20260507101648 41 180 0.0 0.0 0.00 0.00 0.00 73 1004.2
20260507101445 41 180 0.0 0.0 0.00 0.00 0.00 75 1004.3
20260507101246 41 180 0.0 0.0 0.00 0.00 0.00 71 1004.2
20260507100641 40 180 0.0 0.0 0.00 0.00 0.00 75 1004.2
20260507100441 40 180 0.0 0.0 0.00 0.00 0.00 72 1004.2
20260507100238 40 180 0.0 0.0 0.00 0.00 0.00 72 1004.2
20260507100050 40 180 0.0 0.0 0.00 0.00 0.00 73 1004.2
20260507095639 39 180 0.0 0.0 0.00 0.00 0.00 78 1004.2
20260507095439 39 180 0.0 0.0 0.00 0.00 0.00 78 1004.2
20260507095033 39 180 0.0 0.0 0.00 0.00 0.00 73 1004.2
20260507094834 39 180 0.0 0.0 0.00 0.00 0.00 75 1004.2
20260507094632 39 180 0.0 0.0 0.00 0.00 0.00 73 1004.2
20260507094223 39 180 0.0 0.0 0.00 0.00 0.00 78 1004.2
20260507094028 38 180 0.0 0.0 0.00 0.00 0.00 76 1004.2
20260507093821 38 180 0.0 0.0 0.00 0.00 0.00 74 1004.2
20260507093621 39 180 0.0 0.0 0.00 0.00 0.00 75 1004.2
20260507093418 39 180 0.0 0.0 0.00 0.00 0.00 74 1004.2
20260507093303 39 180 0.0 0.0 0.00 0.00 0.00 70 1004.1
20260507093218 39 180 0.0 0.0 0.00 0.00 0.00 70 1004.1
20260507092816 38 180 0.0 0.0 0.00 0.00 0.00 71 1004.1
20260507092613 38 180 0.0 0.0 0.00 0.00 0.00 74 1004.1
20260507092413 38 180 0.0 0.0 0.00 0.00 0.00 74 1004.1
20260507092211 38 180 0.0 0.0 0.00 0.00 0.00 73 1004.1
20260507092011 38 180 0.0 0.0 0.00 0.00 0.00 77 1004.1
20260507091809 38 180 0.0 0.0 0.00 0.00 0.00 78 1004.0
20260507091608 38 180 0.0 0.0 0.00 0.00 0.00 77 1004.1
20260507091206 38 180 0.0 0.0 0.00 0.00 0.00 72 1004.0
20260507091013 38 180 0.0 0.0 0.00 0.00 0.00 71 1004.0
20260507090803 38 180 0.0 0.0 0.00 0.00 0.00 69 1004.0
20260507090642 38 180 0.0 0.0 0.00 0.00 0.00 73 1004.0
20260507090601 38 180 0.0 0.0 0.00 0.00 0.00 73 1004.0
20260507090401 38 180 0.0 0.0 0.00 0.00 0.00 74 1003.8
20260507090159 38 180 0.0 0.0 0.00 0.00 0.00 74 1003.8
20260507085958 38 180 0.0 0.0 0.00 0.00 0.00 71 1003.8
20260507085756 38 180 0.0 0.0 0.00 0.00 0.00 70 1003.8
20260507085556 37 180 0.0 0.0 0.00 0.00 0.00 69 1003.8
20260507085353 37 180 0.0 0.0 0.00 0.00 0.00 68 1003.8
20260507085153 37 180 0.0 0.0 0.00 0.00 0.00 69 1003.8
20260507084952 37 180 0.0 0.0 0.00 0.00 0.00 72 1003.8
20260507084751 37 180 0.0 0.0 0.00 0.00 0.00 72 1003.8
20260507084600 37 180 0.0 0.0 0.00 0.00 0.00 74 1003.8
20260507084348 37 180 0.0 0.0 0.00 0.00 0.00 75 1003.8
20260507083744 36 180 0.0 0.0 0.00 0.00 0.00 78 1003.8
20260507083341 36 180 0.0 0.0 0.00 0.00 0.00 77 1003.8
20260507083141 36 180 0.0 0.0 0.00 0.00 0.00 76 1003.7
20260507082741 36 180 0.0 0.0 0.00 0.00 0.00 77 1003.8
20260507082335 35 180 0.0 0.0 0.00 0.00 0.00 81 1003.8
20260507082142 35 180 0.0 0.0 0.00 0.00 0.00 80 1003.8
20260507081933 35 180 0.0 0.0 0.00 0.00 0.00 79 1003.8
20260507081730 35 180 0.0 0.0 0.00 0.00 0.00 80 1003.7
20260507081532 35 180 0.0 0.0 0.00 0.00 0.00 79 1003.7
20260507081329 35 180 0.0 0.0 0.00 0.00 0.00 80 1003.8
20260507081128 35 180 0.0 0.0 0.00 0.00 0.00 77 1003.8
20260507080925 35 180 0.0 0.0 0.00 0.00 0.00 77 1003.7
20260507080727 35 180 0.0 0.0 0.00 0.00 0.00 79 1003.7
20260507080523 35 180 0.0 0.0 0.00 0.00 0.00 77 1003.8
20260507080323 35 180 0.0 0.0 0.00 0.00 0.00 78 1003.8
20260507080129 35 180 0.0 0.0 0.00 0.00 0.00 79 1003.8
20260507075920 34 180 0.0 0.0 0.00 0.00 0.00 80 1003.8
20260507075718 34 180 0.0 0.0 0.00 0.00 0.00 80 1003.7
20260507075518 34 180 0.0 0.0 0.00 0.00 0.00 80 1003.8
20260507075317 34 180 0.0 0.0 0.00 0.00 0.00 82 1003.8
20260507075117 34 180 0.0 0.0 0.00 0.00 0.00 81 1003.7
20260507074913 34 180 0.0 0.0 0.00 0.00 0.00 82 1003.8
20260507074720 34 180 0.0 0.0 0.00 0.00 0.00 82 1003.7
20260507074510 34 180 0.0 0.0 0.00 0.00 0.00 82 1003.8
20260507074310 33 180 0.0 0.0 0.00 0.00 0.00 83 1003.8
20260507074113 33 180 0.0 0.0 0.00 0.00 0.00 85 1003.7
20260507073912 33 180 0.0 0.0 0.00 0.00 0.00 84 1003.7
20260507073705 33 180 0.0 0.0 0.00 0.00 0.00 85 1003.7
20260507073303 33 180 0.0 0.0 0.00 0.00 0.00 86 1003.6
20260507072900 33 180 0.0 0.0 0.00 0.00 0.00 86 1003.6
20260507072709 33 180 0.0 0.0 0.00 0.00 0.00 87 1003.6
20260507072056 33 180 0.0 0.0 0.00 0.00 0.00 87 1003.4
20260507071855 33 180 0.0 0.0 0.00 0.00 0.00 86 1003.4
20260507071737 33 180 0.0 0.0 0.00 0.00 0.00 87 1003.4
20260507071653 33 180 0.0 0.0 0.00 0.00 0.00 87 1003.4
20260507071453 33 180 0.0 0.0 0.00 0.00 0.00 86 1003.4
20260507071251 33 180 0.0 0.0 0.00 0.00 0.00 83 1003.4
20260507070648 34 180 0.0 0.0 0.00 0.00 0.00 78 1003.3
20260507070248 34 180 0.0 0.0 0.00 0.00 0.00 79 1003.3
20260507070045 34 180 0.0 0.0 0.00 0.00 0.00 79 1003.3
20260507065844 34 180 0.0 0.0 0.00 0.00 0.00 80 1003.3
20260507065642 33 180 0.0 0.0 0.00 0.00 0.00 79 1003.3
20260507065445 33 180 0.0 0.0 0.00 0.00 0.00 82 1003.3
20260507065238 33 180 0.0 0.0 0.00 0.00 0.00 84 1003.3
20260507065044 33 180 0.0 0.0 0.00 0.00 0.00 86 1003.3
20260507064842 33 180 0.0 0.0 0.00 0.00 0.00 84 1003.3
20260507064635 33 180 0.0 0.0 0.00 0.00 0.00 85 1003.3
20260507064437 33 180 0.0 0.0 0.00 0.00 0.00 86 1003.3
20260507064234 33 180 0.0 0.0 0.00 0.00 0.00 87 1003.3
20260507063832 33 180 0.0 0.0 0.00 0.00 0.00 83 1003.4
20260507063629 33 180 0.0 0.0 0.00 0.00 0.00 83 1003.3
20260507063431 33 180 0.0 0.0 0.00 0.00 0.00 83 1003.3
20260507063227 33 180 0.0 0.0 0.00 0.00 0.00 84 1003.3
20260507062825 33 180 0.0 0.0 0.00 0.00 0.00 83 1003.2
20260507062623 34 180 0.0 0.0 0.00 0.00 0.00 81 1003.3
20260507062426 33 180 0.0 0.0 0.00 0.00 0.00 81 1003.2
20260507062018 33 180 0.0 0.0 0.00 0.00 0.00 83 1003.2
20260507061818 34 180 0.0 0.0 0.00 0.00 0.00 81 1003.2
20260507061615 33 180 0.0 0.0 0.00 0.00 0.00 81 1003.2
20260507061415 33 180 0.0 0.0 0.00 0.00 0.00 83 1003.1
20260507061213 34 180 0.0 0.0 0.00 0.00 0.00 81 1003.2
20260507061202 34 180 0.0 0.0 0.00 0.00 0.00 81 1003.1
20260507061013 34 180 0.0 0.0 0.00 0.00 0.00 81 1003.1
20260507060810 34 180 0.0 0.0 0.00 0.00 0.00 81 1003.1
20260507060408 33 180 0.0 0.0 0.00 0.00 0.00 82 1003.2
20260507060006 34 180 0.0 0.0 0.00 0.00 0.00 81 1003.2
20260507055805 34 180 0.0 0.0 0.00 0.00 0.00 81 1003.1
20260507055403 34 180 0.0 0.0 0.00 0.00 0.00 82 1003.1
20260507055200 33 180 0.0 0.0 0.00 0.00 0.00 82 1003.1
20260507055001 33 180 0.0 0.0 0.00 0.00 0.00 82 1003.1
20260507054800 33 180 0.0 0.0 0.00 0.00 0.00 82 1003.1
20260507054559 33 180 0.0 0.0 0.00 0.00 0.00 82 1003.1
20260507054155 34 180 0.0 0.0 0.00 0.00 0.00 82 1003.1
20260507054044 33 180 0.0 0.0 0.00 0.00 0.00 82 1003.1
20260507053956 34 180 0.0 0.0 0.00 0.00 0.00 82 1003.1
20260507053757 33 180 0.0 0.0 0.00 0.00 0.00 82 1003.1
20260507053728 33 180 0.0 0.0 0.00 0.00 0.00 83 1003.1
20260507053550 33 180 0.0 0.0 0.00 0.00 0.00 83 1003.1
20260507053546 33 180 0.0 0.0 0.00 0.00 0.00 83 1002.9
20260507053350 33 180 0.0 0.0 0.00 0.00 0.00 83 1002.9
20260507053147 33 180 0.0 0.0 0.00 0.00 0.00 83 1002.9
20260507052947 33 180 0.0 0.0 0.00 0.00 0.00 83 1003.1
20260507052745 33 180 0.0 0.0 0.00 0.00 0.00 82 1002.9
20260507052551 34 180 0.0 0.0 0.00 0.00 0.00 82 1002.9
20260507052343 34 180 0.0 0.0 0.00 0.00 0.00 82 1002.8
20260507052142 34 180 0.0 0.0 0.00 0.00 0.00 81 1002.9
20260507052016 33 180 0.0 0.0 0.00 0.00 0.00 82 1002.9
20260507051940 33 180 0.0 0.0 0.00 0.00 0.00 82 1002.9
20260507051740 34 180 0.0 0.0 0.00 0.00 0.00 82 1002.9
20260507051337 33 180 0.0 0.0 0.00 0.00 0.00 82 1002.9
20260507051135 33 180 0.0 0.0 0.00 0.00 0.00 82 1002.9
20260507050733 34 180 0.0 0.0 0.00 0.00 0.00 82 1002.9
20260507050642 34 180 0.0 0.0 0.00 0.00 0.00 82 1002.8
20260507050537 34 180 0.0 0.0 0.00 0.00 0.00 82 1002.8
20260507050330 34 180 0.0 0.0 0.00 0.00 0.00 82 1002.8
20260507050227 34 180 0.0 0.0 0.00 0.00 0.00 82 1002.7
20260507050130 34 180 0.0 0.0 0.00 0.00 0.00 82 1002.7
20260507045927 34 180 0.0 0.0 0.00 0.00 0.00 82 1002.7
20260507045837 34 180 0.0 0.0 0.00 0.00 0.00 82 1002.7
20260507045727 34 180 0.0 0.0 0.00 0.00 0.00 82 1002.7
20260507045438 34 180 0.0 0.0 0.00 0.00 0.00 82 1002.8
20260507045325 34 180 0.0 0.0 0.00 0.00 0.00 82 1002.8
20260507045124 34 180 0.0 0.0 0.00 0.00 0.00 83 1002.8
20260507044922 34 180 0.0 0.0 0.00 0.00 0.00 83 1002.7
20260507044317 34 180 0.0 0.0 0.00 0.00 0.00 83 1002.7
20260507044159 34 180 0.0 0.0 0.00 0.00 0.00 84 1002.7
20260507044121 34 180 0.0 0.0 0.00 0.00 0.00 84 1002.7
20260507043715 34 180 0.0 0.0 0.00 0.00 0.00 84 1002.7
20260507043512 34 180 0.0 0.0 0.00 0.00 0.00 84 1002.7
20260507043312 33 180 0.0 0.0 0.00 0.00 0.00 84 1002.7
20260507043112 33 180 0.0 0.0 0.00 0.00 0.00 84 1002.7
20260507042910 33 180 0.0 0.0 0.00 0.00 0.00 85 1002.7
20260507042707 33 180 0.0 0.0 0.00 0.00 0.00 85 1002.7
20260507042507 33 180 0.0 0.0 0.00 0.00 0.00 85 1002.7
20260507042307 33 180 0.0 0.0 0.00 0.00 0.00 85 1002.7
20260507042106 33 180 0.0 0.0 0.00 0.00 0.00 85 1002.6
20260507041902 33 180 0.0 0.0 0.00 0.00 0.00 86 1002.6
20260507041703 34 180 0.0 0.0 0.00 0.00 0.00 85 1002.6
20260507041500 34 180 0.0 0.0 0.00 0.00 0.00 85 1002.7
20260507041300 34 180 0.0 0.0 0.00 0.00 0.00 85 1002.6
20260507041057 34 180 0.0 0.0 0.00 0.00 0.00 85 1002.7
20260507040857 34 180 0.0 0.0 0.00 0.00 0.00 83 1002.7
20260507040455 34 180 0.0 0.0 0.00 0.00 0.00 84 1002.7
20260507040259 34 180 0.0 0.0 0.00 0.00 0.00 85 1002.7
20260507040056 34 180 0.0 0.0 0.00 0.00 0.00 85 1002.7
20260507035849 34 180 0.0 0.0 0.00 0.00 0.00 85 1002.7
20260507035651 34 180 0.0 0.0 0.00 0.00 0.00 85 1002.7
20260507035447 34 180 0.0 0.0 0.00 0.00 0.00 85 1002.6
20260507035247 34 180 0.0 0.0 0.00 0.00 0.00 85 1002.7
20260507035044 34 180 0.0 0.0 0.00 0.00 0.00 85 1002.7
20260507034845 34 180 0.0 0.0 0.00 0.00 0.00 85 1002.6
20260507034642 34 180 0.0 0.0 0.00 0.00 0.00 85 1002.7
20260507034442 34 180 0.0 0.0 0.00 0.00 0.00 86 1002.6
20260507034245 34 180 0.0 0.0 0.00 0.00 0.00 86 1002.6
20260507034039 34 180 0.0 0.0 0.00 0.00 0.00 87 1002.6
20260507033914 34 180 0.0 0.0 0.00 0.00 0.00 88 1002.6
20260507033837 34 180 0.0 0.0 0.00 0.00 0.00 88 1002.6
20260507033716 34 180 0.0 0.0 0.00 0.00 0.00 88 1002.7
20260507033644 34 180 0.0 0.0 0.00 0.00 0.00 88 1002.7
20260507033434 34 180 0.0 0.0 0.00 0.00 0.00 87 1002.7
20260507033240 34 180 0.0 0.0 0.00 0.00 0.00 88 1002.8
20260507033032 34 180 0.0 0.0 0.00 0.00 0.00 87 1002.7
20260507032834 34 180 0.0 0.0 0.00 0.00 0.00 87 1002.8
20260507032630 34 180 0.0 0.0 0.00 0.00 0.00 87 1002.8
20260507032431 34 180 0.0 0.0 0.00 0.00 0.00 87 1002.8
20260507032227 34 180 0.0 0.0 0.00 0.00 0.00 87 1002.8
20260507032035 34 180 0.0 0.0 0.00 0.00 0.00 87 1002.8
20260507032025 34 180 0.0 0.0 0.00 0.00 0.00 87 1002.8
20260507031827 34 180 0.0 0.0 0.00 0.00 0.00 87 1002.8
20260507031636 34 180 0.0 0.0 0.00 0.00 0.00 87 1002.7
20260507031422 34 180 0.0 0.0 0.00 0.00 0.00 86 1002.7
20260507030820 34 180 0.0 0.0 0.00 0.00 0.00 86 1002.8
20260507030654 34 180 0.0 0.0 0.00 0.00 0.00 87 1002.8
20260507030617 34 180 0.0 0.0 0.00 0.00 0.00 87 1002.8
20260507030418 34 180 0.0 0.0 0.00 0.00 0.00 87 1002.8
20260507030214 34 180 0.0 0.0 0.00 0.00 0.00 87 1002.8
20260507025812 34 180 0.0 0.0 0.00 0.00 0.00 88 1002.9
20260507025651 34 180 0.0 0.0 0.00 0.00 0.00 88 1002.9
20260507025612 34 180 0.0 0.0 0.00 0.00 0.00 88 1002.9
20260507025410 34 180 0.0 0.0 0.00 0.00 0.00 88 1002.8
20260507025210 34 180 0.0 0.0 0.00 0.00 0.00 90 1002.9
20260507025007 34 180 0.0 0.0 0.00 0.00 0.00 90 1002.9
20260507024839 34 180 0.0 0.0 0.00 0.00 0.00 90 1002.9
20260507024807 34 180 0.0 0.0 0.00 0.00 0.00 90 1002.9
20260507024604 34 180 0.0 0.0 0.00 0.00 0.00 90 1002.9
20260507024405 34 180 0.0 0.0 0.00 0.00 0.00 90 1002.9
20260507024202 34 180 0.0 0.0 0.00 0.00 0.00 90 1002.8
20260507024002 34 180 0.0 0.0 0.00 0.00 0.00 90 1002.9
20260507023806 34 180 0.0 0.0 0.00 0.00 0.00 90 1002.8
20260507023600 34 180 0.0 0.0 0.00 0.00 0.00 90 1002.8
20260507023357 34 180 0.0 0.0 0.00 0.00 0.00 89 1002.8
20260507023157 34 180 0.0 0.0 0.00 0.00 0.00 89 1002.8
20260507022955 34 180 0.0 0.0 0.00 0.00 0.00 89 1002.8
20260507022755 34 180 0.0 0.0 0.00 0.00 0.00 88 1002.8
20260507022552 34 180 0.0 0.0 0.00 0.00 0.00 88 1002.7
20260507022427 34 180 0.0 0.0 0.00 0.00 0.00 88 1002.7
20260507022354 34 180 0.0 0.0 0.00 0.00 0.00 88 1002.7
20260507022150 34 180 0.0 0.0 0.00 0.00 0.00 88 1002.7
20260507021951 34 180 0.0 0.0 0.00 0.00 0.00 89 1002.7
20260507021748 34 180 0.0 0.0 0.00 0.00 0.00 89 1002.7
20260507021548 34 180 0.0 0.0 0.00 0.00 0.00 88 1002.6
20260507021422 34 180 0.0 0.0 0.00 0.00 0.00 89 1002.6
20260507021346 34 180 0.0 0.0 0.00 0.00 0.00 89 1002.6
20260507021146 34 180 0.0 0.0 0.00 0.00 0.00 89 1002.7
20260507020943 34 180 0.0 0.0 0.00 0.00 0.00 89 1002.7
20260507020744 33 180 0.0 0.0 0.00 0.00 0.00 90 1002.8
20260507020541 33 180 0.0 0.0 0.00 0.00 0.00 90 1002.8
20260507020340 34 180 0.0 0.0 0.00 0.00 0.00 89 1002.7
20260507020138 33 180 0.0 0.0 0.00 0.00 0.00 89 1002.7
20260507015735 33 180 0.0 0.0 0.00 0.00 0.00 90 1002.8
20260507015535 33 180 0.0 0.0 0.00 0.00 0.00 91 1002.8
20260507015333 33 180 0.0 0.0 0.00 0.00 0.00 90 1002.8
20260507015133 33 180 0.0 0.0 0.00 0.00 0.00 91 1002.8
20260507014934 33 180 0.0 0.0 0.00 0.00 0.00 91 1002.8
20260507014732 34 180 0.0 0.0 0.00 0.00 0.00 89 1002.9
20260507014533 33 180 0.0 0.0 0.00 0.00 0.00 90 1002.9
20260507014328 34 180 0.0 0.0 0.00 0.00 0.00 89 1002.8
20260507014125 33 180 0.0 0.0 0.00 0.00 0.00 90 1002.8
20260507013928 33 180 0.0 0.0 0.00 0.00 0.00 91 1002.8
20260507013724 34 180 0.0 0.0 0.00 0.00 0.00 89 1002.8
20260507013524 34 180 0.0 0.0 0.00 0.00 0.00 89 1002.8
20260507013322 33 180 0.0 0.0 0.00 0.00 0.00 91 1002.8
20260507013126 33 180 0.0 0.0 0.00 0.00 0.00 93 1002.8
20260507012924 33 180 0.0 0.0 0.00 0.00 0.00 94 1002.8
20260507012719 33 180 0.0 0.0 0.00 0.00 0.00 93 1002.8
20260507012318 33 180 0.0 0.0 0.00 0.00 0.00 91 1002.8
20260507012116 34 180 0.0 0.0 0.00 0.00 0.00 91 1002.8
20260507011920 34 180 0.0 0.0 0.00 0.00 0.00 89 1002.9
20260507011712 34 180 0.0 0.0 0.00 0.00 0.00 89 1002.8
20260507011310 34 180 0.0 0.0 0.00 0.00 0.00 89 1002.8
20260507011112 34 180 0.0 0.0 0.00 0.00 0.00 88 1002.8
20260507010922 34 180 0.0 0.0 0.00 0.00 0.00 89 1002.9
20260507010707 34 180 0.0 0.0 0.00 0.00 0.00 89 1002.8
20260507010505 34 180 0.0 0.0 0.00 0.00 0.00 89 1002.8
20260507010305 34 180 0.0 0.0 0.00 0.00 0.00 89 1002.8
20260507010120 34 180 0.0 0.0 0.00 0.00 0.00 89 1002.9
20260507005903 34 180 0.0 0.0 0.00 0.00 0.00 90 1002.9
20260507005704 34 180 0.0 0.0 0.00 0.00 0.00 90 1002.9
20260507005501 34 180 0.0 0.0 0.00 0.00 0.00 88 1003.1
20260507005100 34 180 0.0 0.0 0.00 0.00 0.00 88 1003.1
20260507004930 34 180 0.0 0.0 0.00 0.00 0.00 89 1003.1
20260507004853 34 180 0.0 0.0 0.00 0.00 0.00 89 1003.1
20260507004451 34 180 0.0 0.0 0.00 0.00 0.00 89 1003.2
20260507004251 34 180 0.0 0.0 0.00 0.00 0.00 89 1003.1
20260507004048 34 180 0.0 0.0 0.00 0.00 0.00 89 1003.1
20260507003646 34 180 0.0 0.0 0.00 0.00 0.00 89 1003.1
20260507003452 34 180 0.0 0.0 0.00 0.00 0.00 89 1003.2
20260507003251 34 180 0.0 0.0 0.00 0.00 0.00 89 1003.2
20260507002841 34 180 0.0 0.0 0.00 0.00 0.00 89 1003.2
20260507002641 34 180 0.0 0.0 0.00 0.00 0.00 89 1003.2
20260507002442 34 180 0.0 0.0 0.00 0.00 0.00 90 1003.2
20260507002240 34 180 0.0 0.0 0.00 0.00 0.00 90 1003.2
20260507002041 34 180 0.0 0.0 0.00 0.00 0.00 91 1003.3
20260507001836 34 180 0.0 0.0 0.00 0.00 0.00 92 1003.2
20260507001633 34 180 0.0 0.0 0.00 0.00 0.00 92 1003.2
20260507001434 34 180 0.0 0.0 0.00 0.00 0.00 92 1003.2
20260507001233 34 180 0.0 0.0 0.00 0.00 0.00 92 1003.3
20260507001030 34 180 0.0 0.0 0.00 0.00 0.00 92 1003.3
20260507000920 34 180 0.0 0.0 0.00 0.00 0.00 92 1003.3
20260507000828 34 180 0.0 0.0 0.00 0.00 0.00 92 1003.3
20260507000628 34 180 0.0 0.0 0.00 0.00 0.00 91 1003.3
20260507000226 34 180 0.0 0.0 0.00 0.00 0.00 91 1003.3
20260507000023 34 180 0.0 0.0 0.00 0.00 0.00 91 1003.3
20260506235823 34 180 0.0 0.0 0.00 0.00 0.00 91 1003.3
20260506235653 34 180 0.0 0.0 0.00 0.00 0.00 91 1003.3
20260506235620 34 180 0.0 0.0 0.00 0.00 0.00 91 1003.3
20260506235420 34 180 0.0 0.0 0.00 0.00 0.00 92 1003.3
20260506235218 34 180 0.0 0.0 0.00 0.00 0.00 92 1003.4
20260506235020 34 180 0.0 0.0 0.00 0.00 0.00 93 1003.4
20260506234815 34 180 0.0 0.0 0.00 0.00 0.00 93 1003.4
20260506234615 34 180 0.0 0.0 0.00 0.00 0.00 94 1003.4
20260506234422 34 180 0.0 0.0 0.00 0.00 0.00 94 1003.3
20260506234253 34 180 0.0 0.0 0.00 0.00 0.00 95 1003.4
20260506234213 34 180 0.0 0.0 0.00 0.00 0.00 95 1003.4
20260506234019 34 180 0.0 0.0 0.00 0.00 0.00 95 1003.4
20260506233810 34 180 0.0 0.0 0.00 0.00 0.00 95 1003.4
20260506233641 34 180 0.0 0.0 0.00 0.00 0.00 95 1003.4
20260506233608 34 180 0.0 0.0 0.00 0.00 0.00 95 1003.4
20260506233414 33 180 0.0 0.0 0.00 0.00 0.00 95 1003.4
20260506233207 34 180 0.0 0.0 0.00 0.00 0.00 96 1003.4
20260506232803 34 180 0.0 0.0 0.00 0.00 0.00 96 1003.4
20260506232606 34 180 0.0 0.0 0.00 0.00 0.00 96 1003.4
20260506232402 34 180 0.0 0.0 0.00 0.00 0.00 97 1003.4
20260506232204 34 180 0.0 0.0 0.00 0.00 0.00 97 1003.4
20260506231958 33 180 0.0 0.0 0.00 0.00 0.00 97 1003.6
20260506231759 33 180 0.0 0.0 0.00 0.00 0.00 97 1003.4
20260506231558 33 180 0.0 0.0 0.00 0.00 0.00 97 1003.4
20260506231355 34 180 0.0 0.0 0.00 0.00 0.00 97 1003.6
20260506231153 33 180 0.0 0.0 0.00 0.00 0.00 98 1003.6
20260506230953 33 180 0.0 0.0 0.00 0.00 0.00 98 1003.6
20260506230753 33 180 0.0 0.0 0.00 0.00 0.00 99 1003.6
20260506230558 33 180 0.0 0.0 0.00 0.00 0.00 99 1003.6
20260506230237 33 180 0.0 0.0 0.00 0.00 0.00 99 1003.6
20260506230150 33 180 0.0 0.0 0.00 0.00 0.00 99 1003.6
20260506225946 33 180 0.0 0.0 0.00 0.00 0.00 98 1003.6
20260506225747 33 180 0.0 0.0 0.00 0.00 0.00 98 1003.6
20260506225554 33 180 0.0 0.0 0.00 0.00 0.00 98 1003.6
20260506225344 33 180 0.0 0.0 0.00 0.00 0.00 98 1003.7
20260506225142 33 180 0.0 0.0 0.00 0.00 0.00 99 1003.7
20260506224940 33 180 0.0 0.0 0.00 0.00 0.00 99 1003.7
20260506224738 33 180 0.0 0.0 0.00 0.00 0.00 98 1003.6
20260506224540 33 180 0.0 0.0 0.00 0.00 0.00 99 1003.7
20260506224337 33 180 0.0 0.0 0.00 0.00 0.00 99 1003.7
20260506224138 33 180 0.0 0.0 0.00 0.00 0.00 99 1003.6
20260506223934 33 180 0.0 0.0 0.00 0.00 0.00 99 1003.6
20260506223735 33 180 0.0 0.0 0.00 0.00 0.00 100 1003.6
20260506223532 33 180 0.0 0.0 0.00 0.00 0.00 100 1003.7
20260506223333 33 180 0.0 0.0 0.00 0.00 0.00 100 1003.7
20260506223138 33 180 0.0 0.0 0.00 0.00 0.00 100 1003.7
20260506222934 33 180 0.0 0.0 0.00 0.00 0.00 100 1003.6
20260506222727 33 180 0.0 0.0 0.00 0.00 0.00 100 1003.6
20260506222526 33 180 0.0 0.0 0.00 0.00 0.00 100 1003.6
20260506222326 33 180 0.0 0.0 0.00 0.00 0.00 100 1003.6
20260506222131 33 180 0.0 0.0 0.00 0.00 0.00 100 1003.6
20260506221922 33 180 0.0 0.0 0.00 0.00 0.00 99 1003.6
20260506221728 33 180 0.0 0.0 0.00 0.00 0.00 100 1003.6
20260506221320 33 180 0.0 0.0 0.00 0.00 0.00 100 1003.6
20260506221117 33 180 0.0 0.0 0.00 0.00 0.00 99 1003.6
20260506220919 33 180 0.0 0.0 0.00 0.00 0.00 99 1003.6
20260506220717 33 180 0.0 0.0 0.00 0.00 0.00 100 1003.7
20260506220517 33 180 0.0 0.0 0.00 0.00 0.00 100 1003.7
20260506220312 33 180 0.0 0.0 0.00 0.00 0.00 100 1003.7
20260506220112 33 180 0.0 0.0 0.00 0.00 0.00 100 1003.6
20260506215911 33 180 0.0 0.0 0.00 0.00 0.00 99 1003.6
20260506215708 33 180 0.0 0.0 0.00 0.00 0.00 100 1003.7
20260506215308 33 180 0.0 0.0 0.00 0.00 0.00 100 1003.7
20260506215113 33 180 0.0 0.0 0.00 0.00 0.00 100 1003.7
20260506214905 33 180 0.0 0.0 0.00 0.00 0.00 100 1003.7
20260506214703 33 180 0.0 0.0 0.00 0.00 0.00 100 1003.7
20260506214502 33 180 0.0 0.0 0.00 0.00 0.00 100 1003.7
20260506214301 33 180 0.0 0.0 0.00 0.00 0.00 100 1003.7
20260506213857 33 180 0.0 0.0 0.00 0.00 0.00 100 1003.7
20260506213658 33 180 0.0 0.0 0.00 0.00 0.00 100 1003.7
20260506213458 33 180 0.0 0.0 0.00 0.00 0.00 100 1003.7
20260506213256 33 180 0.0 0.0 0.00 0.00 0.00 100 1003.7
20260506213103 33 180 0.0 0.0 0.00 0.00 0.00 100 1003.7
20260506212852 33 180 0.0 0.0 0.00 0.00 0.00 100 1003.7
20260506212651 33 180 0.0 0.0 0.00 0.00 0.00 100 1003.7
20260506212046 33 180 0.0 0.0 0.00 0.00 0.00 100 1003.7
20260506211845 33 180 0.0 0.0 0.00 0.00 0.00 100 1003.7
20260506211645 33 180 0.0 0.0 0.00 0.00 0.00 100 1003.6
20260506211244 33 180 0.0 0.0 0.00 0.00 0.00 100 1003.6
20260506210909 33 180 0.0 0.0 0.00 0.00 0.00 100 1003.7
20260506210838 33 180 0.0 0.0 0.00 0.00 0.00 100 1003.7
20260506210636 33 180 0.0 0.0 0.00 0.00 0.00 100 1003.6
20260506210233 33 180 0.0 0.0 0.00 0.00 0.00 100 1003.6
20260506210034 33 180 0.0 0.0 0.00 0.00 0.00 100 1003.6
20260506205836 33 180 0.0 0.0 0.00 0.00 0.00 100 1003.6
20260506205631 33 180 0.0 0.0 0.00 0.00 0.00 100 1003.6
20260506205428 33 180 0.0 0.0 0.00 0.00 0.00 100 1003.6
20260506205231 33 180 0.0 0.0 0.00 0.00 0.00 100 1003.6
20260506204829 33 180 0.0 0.0 0.00 0.00 0.00 100 1003.6
20260506204629 33 180 0.0 0.0 0.00 0.00 0.00 100 1003.6
20260506204221 33 180 0.0 0.0 0.00 0.00 0.00 100 1003.6
20260506204021 33 180 0.0 0.0 0.00 0.00 0.00 100 1003.6
20260506203818 33 180 0.0 0.0 0.00 0.00 0.00 100 1003.6
20260506203620 33 180 0.0 0.0 0.00 0.00 0.00 100 1003.6
20260506203427 33 180 0.0 0.0 0.00 0.00 0.00 100 1003.4
20260506203216 33 180 0.0 0.0 0.00 0.00 0.00 100 1003.4
20260506202816 33 180 0.0 0.0 0.00 0.00 0.00 100 1003.4
20260506202610 33 180 0.0 0.0 0.00 0.00 0.00 100 1003.6
20260506202416 33 180 0.0 0.0 0.00 0.00 0.00 100 1003.4
20260506202331 33 180 0.0 0.0 0.00 0.00 0.00 100 1003.4
20260506202208 33 180 0.0 0.0 0.00 0.00 0.00 100 1003.4
20260506202015 33 180 0.0 0.0 0.00 0.00 0.00 100 1003.4
20260506201805 33 180 0.0 0.0 0.00 0.00 0.00 100 1003.4
20260506201609 33 180 0.0 0.0 0.00 0.00 0.00 100 1003.3
20260506201403 33 180 0.0 0.0 0.00 0.00 0.00 100 1003.4
20260506201205 33 180 0.0 0.0 0.00 0.00 0.00 100 1003.3
20260506201001 33 180 0.0 0.0 0.00 0.00 0.00 100 1003.3
20260506200800 33 180 0.0 0.0 0.00 0.00 0.00 100 1003.3
20260506200600 33 180 0.0 0.0 0.00 0.00 0.00 99 1003.4
20260506200358 33 180 0.0 0.0 0.00 0.00 0.00 100 1003.3
20260506200155 33 180 0.0 0.0 0.00 0.00 0.00 100 1003.3
20260506195752 33 180 0.0 0.0 0.00 0.00 0.00 100 1003.2
20260506195553 33 180 0.0 0.0 0.00 0.00 0.00 100 1003.1
20260506195352 33 180 0.0 0.0 0.00 0.00 0.00 100 1003.1
20260506195151 33 180 0.0 0.0 0.00 0.00 0.00 100 1003.1
20260506194955 33 180 0.0 0.0 0.00 0.00 0.00 100 1003.1
20260506194821 33 180 0.0 0.0 0.00 0.00 0.00 100 1003.2
20260506194748 33 180 0.0 0.0 0.00 0.00 0.00 100 1003.2
20260506194545 33 180 0.0 0.0 0.00 0.00 0.00 100 1003.2
20260506194352 33 180 0.0 0.0 0.00 0.00 0.00 100 1003.1
20260506194254 33 180 0.0 0.0 0.00 0.00 0.00 100 1003.1
20260506194147 33 180 0.0 0.0 0.00 0.00 0.00 100 1003.1
20260506193944 34 180 0.0 0.0 0.00 0.00 0.00 99 1003.1
20260506193740 34 180 0.0 0.0 0.00 0.00 0.00 99 1002.9
20260506193540 34 180 0.0 0.0 0.00 0.00 0.00 99 1003.1
20260506193337 34 180 0.0 0.0 0.00 0.00 0.00 99 1002.9
20260506193137 34 180 0.0 0.0 0.00 0.00 0.00 98 1002.9
20260506192935 34 180 0.0 0.0 0.00 0.00 0.00 97 1002.9
20260506192735 34 180 0.0 0.0 0.00 0.00 0.00 98 1002.8
20260506192532 34 180 0.0 0.0 0.00 0.00 0.00 98 1002.8
20260506192332 34 180 0.0 0.0 0.00 0.00 0.00 99 1002.8
20260506192139 34 180 0.0 0.0 0.00 0.00 0.00 99 1002.8
20260506191929 34 180 0.0 0.0 0.00 0.00 0.00 98 1002.7
20260506191731 34 180 0.0 0.0 0.00 0.00 0.00 98 1002.7
20260506191527 34 180 0.0 0.0 0.00 0.00 0.00 97 1002.7
20260506191324 34 180 0.0 0.0 0.00 0.00 0.00 97 1002.6
20260506190723 34 180 0.0 0.0 0.00 0.00 0.00 96 1002.4
20260506190521 34 180 0.0 0.0 0.00 0.00 0.00 96 1002.4
20260506190322 34 180 0.0 0.0 0.00 0.00 0.00 96 1002.4
20260506185716 34 180 0.0 0.0 0.00 0.00 0.00 98 1002.3
20260506185349 34 180 0.0 0.0 0.00 0.00 0.00 98 1002.4
20260506185312 34 180 0.0 0.0 0.00 0.00 0.00 98 1002.4
20260506185112 34 180 0.0 0.0 0.00 0.00 0.00 98 1002.4
20260506184912 34 180 0.0 0.0 0.00 0.00 0.00 98 1002.4
20260506184709 34 180 0.0 0.0 0.00 0.00 0.00 98 1002.4
20260506184508 34 180 0.0 0.0 0.00 0.00 0.00 99 1002.4
20260506184106 34 180 0.0 0.0 0.00 0.00 0.00 99 1002.4
20260506183904 34 180 0.0 0.0 0.00 0.00 0.00 99 1002.4
20260506183737 34 180 0.0 0.0 0.00 0.00 0.00 99 1002.4
20260506183702 34 180 0.0 0.0 0.00 0.00 0.00 99 1002.4
20260506183502 34 180 0.0 0.0 0.00 0.00 0.00 98 1002.4
20260506183259 34 180 0.0 0.0 0.00 0.00 0.00 98 1002.4
20260506182858 34 180 0.0 0.0 0.00 0.00 0.00 98 1002.6
20260506182822 34 180 0.0 0.0 0.00 0.00 0.00 98 1002.4
20260506182658 34 180 0.0 0.0 0.00 0.00 0.00 98 1002.4
20260506182456 35 180 0.0 0.0 0.00 0.00 0.00 97 1002.4
20260506182334 35 180 0.0 0.0 0.00 0.00 0.00 96 1002.4
20260506182254 35 180 0.0 0.0 0.00 0.00 0.00 96 1002.4
20260506182052 35 180 0.0 0.0 0.00 0.00 0.00 95 1002.4
20260506181852 35 180 0.0 0.0 0.00 0.00 0.00 95 1002.4
20260506181651 35 180 0.0 0.0 0.00 0.00 0.00 95 1002.3
20260506181331 35 180 0.0 0.0 0.00 0.00 0.00 95 1002.2
20260506181247 35 180 0.0 0.0 0.00 0.00 0.00 95 1002.2
20260506180844 35 180 0.0 0.0 0.00 0.00 0.00 96 1002.2
20260506180644 35 180 0.0 0.0 0.00 0.00 0.00 95 1002.2
20260506180242 35 180 0.0 0.0 0.00 0.00 0.00 96 1002.0
20260506175840 35 180 0.0 0.0 0.00 0.00 0.00 95 1002.0
20260506175636 35 180 0.0 0.0 0.00 0.00 0.00 96 1002.0
20260506175439 35 180 0.0 0.0 0.00 0.00 0.00 96 1002.0
20260506175036 35 180 0.0 0.0 0.00 0.00 0.00 96 1002.0
20260506174831 35 180 0.0 0.0 0.00 0.00 0.00 96 1001.9
20260506174631 35 180 0.0 0.0 0.00 0.00 0.00 96 1001.9
20260506174429 35 180 0.0 0.0 0.00 0.00 0.00 96 1001.9
20260506174229 35 180 0.0 0.0 0.00 0.00 0.00 96 1001.9
20260506174026 35 180 0.0 0.0 0.00 0.00 0.00 95 1001.9
20260506173826 35 180 0.0 0.0 0.00 0.00 0.00 96 1001.9
20260506173624 35 180 0.0 0.0 0.00 0.00 0.00 96 1001.8
20260506173221 35 180 0.0 0.0 0.00 0.00 0.00 95 1001.8
20260506173021 36 180 0.0 0.0 0.00 0.00 0.00 96 1001.8
20260506172819 36 180 0.0 0.0 0.00 0.00 0.00 95 1001.8
20260506172619 36 180 0.0 0.0 0.00 0.00 0.00 95 1001.7
20260506172416 36 180 0.0 0.0 0.00 0.00 0.00 96 1001.7
20260506172339 36 180 0.0 0.0 0.00 0.00 0.00 95 1001.7
20260506172218 36 180 0.0 0.0 0.00 0.00 0.00 95 1001.7
20260506172015 36 180 0.0 0.0 0.00 0.00 0.00 96 1001.8
20260506171814 36 180 0.0 0.0 0.00 0.00 0.00 95 1001.8
20260506171611 36 180 0.0 0.0 0.00 0.00 0.00 96 1001.7
20260506171417 36 180 0.0 0.0 0.00 0.00 0.00 96 1001.7
20260506171209 36 180 0.0 0.0 0.00 0.00 0.00 95 1001.7
20260506171009 37 180 0.0 0.0 0.00 0.00 0.00 95 1001.7
20260506170807 37 180 0.0 0.0 0.00 0.00 0.00 96 1001.8
20260506170701 37 180 0.0 0.0 0.00 0.00 0.00 95 1001.8
20260506170606 37 180 0.0 0.0 0.00 0.00 0.00 95 1001.8
20260506170404 37 180 0.0 0.0 0.00 0.00 0.00 96 1001.7
20260506170252 37 180 0.0 0.0 0.00 0.00 0.00 97 1001.7
20260506170204 37 180 0.0 0.0 0.00 0.00 0.00 97 1001.7
20260506170001 36 180 0.0 0.0 0.00 0.00 0.00 97 1001.7
20260506165801 36 180 0.0 0.0 0.00 0.00 0.00 97 1001.5
20260506165648 36 180 0.0 0.0 0.00 0.00 0.00 96 1001.7
20260506165559 36 180 0.0 0.0 0.00 0.00 0.00 96 1001.7
20260506165400 36 180 0.0 0.0 0.00 0.00 0.00 96 1001.7
20260506165001 36 180 0.0 0.0 0.00 0.00 0.00 96 1001.7
20260506164753 36 180 0.0 0.0 0.00 0.00 0.00 95 1001.8
20260506164357 37 180 0.0 0.0 0.00 0.00 0.00 96 1001.8
20260506163949 38 180 0.0 0.0 0.00 0.00 0.00 96 1001.5
20260506163752 38 180 0.0 0.0 0.00 0.00 0.00 96 1001.5
20260506163547 38 180 0.0 0.0 0.00 0.00 0.00 95 1001.5
20260506163347 37 180 0.0 0.0 0.00 0.00 0.00 95 1001.5
20260506163151 37 180 0.0 0.0 0.00 0.00 0.00 95 1001.7
20260506162819 37 180 0.0 0.0 0.00 0.00 0.00 94 1001.5
20260506162741 37 180 0.0 0.0 0.00 0.00 0.00 94 1001.5
20260506162338 37 180 0.0 0.0 0.00 0.00 0.00 92 1001.5
20260506161533 37 180 0.0 0.0 0.00 0.00 0.00 90 1001.7
20260506161334 37 180 0.0 0.0 0.00 0.00 0.00 91 1001.7
20260506161131 37 180 0.0 0.0 0.00 0.00 0.00 92 1001.7
20260506160931 37 180 0.0 0.0 0.00 0.00 0.00 94 1001.7
20260506160728 37 180 0.0 0.0 0.00 0.00 0.00 94 1001.7
20260506160529 37 180 0.0 0.0 0.00 0.00 0.00 93 1001.7
20260506160326 37 180 0.0 0.0 0.00 0.00 0.00 91 1001.7
20260506155923 38 180 0.0 0.0 0.00 0.00 0.00 85 1001.7
20260506155726 38 180 0.0 0.0 0.00 0.00 0.00 87 1001.7
20260506155321 37 180 0.0 0.0 0.00 0.00 0.00 87 1001.7
20260506155119 38 180 0.0 0.0 0.00 0.00 0.00 85 1001.7
20260506154716 38 180 0.0 0.0 0.00 0.00 0.00 84 1001.7
20260506154313 38 180 0.0 0.0 0.00 0.00 0.00 83 1001.5
20260506154159 38 180 0.0 0.0 0.00 0.00 0.00 82 1001.7
20260506154117 38 180 0.0 0.0 0.00 0.00 0.00 82 1001.7
20260506153916 38 180 0.0 0.0 0.00 0.00 0.00 82 1001.5
20260506153711 38 180 0.0 0.0 0.00 0.00 0.00 83 1001.5
20260506153508 38 180 0.0 0.0 0.00 0.00 0.00 83 1001.5
20260506153308 38 180 0.0 0.0 0.00 0.00 0.00 83 1001.5
20260506153111 38 180 0.0 0.0 0.00 0.00 0.00 83 1001.4
20260506152906 39 180 0.0 0.0 0.00 0.00 0.00 83 1001.5
20260506152706 39 180 0.0 0.0 0.00 0.00 0.00 83 1001.4
20260506152506 39 180 0.0 0.0 0.00 0.00 0.00 83 1001.4
20260506152339 39 180 0.0 0.0 0.00 0.00 0.00 84 1001.4
20260506152301 39 180 0.0 0.0 0.00 0.00 0.00 84 1001.4
20260506152101 39 180 0.0 0.0 0.00 0.00 0.00 83 1001.4
20260506151858 40 180 0.0 0.0 0.00 0.00 0.00 84 1001.4
20260506151700 40 180 0.0 0.0 0.00 0.00 0.00 83 1001.4
20260506151456 40 180 0.0 0.0 0.00 0.00 0.00 86 1001.4
20260506151256 40 180 0.0 0.0 0.00 0.00 0.00 86 1001.4
20260506150853 39 180 0.0 0.0 0.00 0.00 0.00 88 1001.4